CAPE
1520 1469 1433 1106 944 1000 941 984 1421 2271 2063 2346 2321 2178 2096 1111 1306 2017 2074 2147 2344 1590
1588 1624 1416 1476 1615 1581 1458 995 1450 2115 1984 2182 2117 2109 2186 1617 1962 2131 1886 1303 1786 1619
1404 1524 1532 1649 1961 1586 1280 1662 1549 2041 2047 2057 2171 1953 2294 1393 1728 2046 1688 1338 1283 1705
1430 1312 1516 1564 1706 1886 1858 1831 2268 2273 2098 2190 2178 1585 1830 1773 1729 2011 2106 1837 1315 1838
1557 1433 1323 1595 1499 1666 1806 1506 1268 1581 1740 1944 2038 2054 1924 1557 1184 1500 1733 1710 1955 1726
1582 1517 1404 1374 1604 1573 1671 1724 897 1267 1542 1561 1479 1273 1379 1561 1405 1481 1771 1580 1570 1637
1634 1551 1472 1542 1598 1611 1773 1837 1761 1322 1204 1510 1495 1247 1293 1164 1488 1735 1703 1611 1600 1613
1825 1921 1836 1763 1846 1865 1760 1811 1856 1714 1924 1865 1054 1140 1410 1522 1400 1488 1650 1358 1546 1636
2228 2159 2402 2305 2298 2308 2020 1891 1885 1857 1829 1750 1396 522 372 762 1195 1463 1878 1802 1613 1686
1618 1673 1769 1743 2201 2412 2164 1982 2091 1918 1740 1784 1842 1015 460 382 1179 1174 1607 1577 1700 1482
650 717 972 1363 1633 1871 1952 2122 2337 2375 2467 2149 1990 1144 658 169 1461 1442 1447 1840 1640 2325
818 334 533 245 699 1456 1579 1826 1773 1677 1747 1854 1908 18 16 38 1441 1479 1880 2242 1963 1554
528 474 349 410 310 96 278 436 364 445 346 102 786 1 0 0 882 1517 2142 2153 573 0
585 304 286 42 34 87 95 84 61 9 6 5 1 3 0 0 72 785 1067 1292 822 30
CIN
-2 0 0 0 0 0 0 0 0 0 0 0 0 0 -1 -9 -4 0 0 0 0 0
-3 0 0 0 0 0 -1 0 0 0 0 0 0 0 0 0 0 0 0 -1 -1 0
-4 -6 0 0 0 -1 0 0 0 0 0 0 0 0 0 0 0 0 0 0 0 0
0 0 0 0 0 0 0 0 -1 -1 0 0 0 0 0 0 0 0 0 0 0 0
0 0 0 0 0 0 0 0 0 0 0 0 0 0 0 0 0 0 0 0 0 0
0 0 0 0 0 0 0 0 -5 0 0 0 -1 0 0 0 0 0 0 0 0 0
0 0 0 0 0 0 0 0 0 -3 0 0 0 0 0 0 0 0 0 0 0 0
0 0 0 0 0 0 0 0 0 0 0 0 0 0 0 0 0 0 0 0 0 0
0 0 0 0 0 0 0 0 0 0 0 0 0 -2 -24 -35 0 0 0 0 0 0
-2 0 0 0 0 0 0 0 0 0 0 0 0 -6 -60 -84 -5 0 0 0 0 0
-31 -21 -8 -3 0 0 0 0 0 0 0 0 0 -5 -36 -138 -11 0 0 0 0 0
-1 -15 -7 -43 -1 0 0 0 0 0 0 0 0 -8 -38 -142 0 0 0 0 0 0
-4 0 -2 -9 -5 -26 0 0 0 0 -12 -101 -2 0 0 0 -6 0 0 0 -63 0
-2 -12 -2 -46 -42 -5 -2 -1 -3 -17 0 0 0 0 0 0 -58 -3 0 0 -5 -66
Wind_Speed
14 11 10 12 9 9 8 7 5 7 8 8 7 6 5 6 7 5 6 5 5 7
13 14 12 10 10 8 6 6 7 8 9 9 8 8 7 7 6 5 6 6 6 8
15 14 14 11 11 10 8 9 8 9 9 9 8 8 8 8 8 7 7 8 7 7
14 15 14 13 13 12 10 10 9 9 9 10 9 9 9 10 8 8 8 9 7 8
14 14 15 15 14 12 12 11 11 10 8 9 10 8 9 10 10 11 10 10 11 10
14 14 15 14 14 14 13 12 12 11 10 9 8 9 10 10 11 12 13 11 9 11
14 14 14 13 13 13 13 13 12 11 12 10 10 10 11 11 11 11 11 11 9 12
11 12 12 12 13 14 14 13 13 13 12 12 11 10 11 10 10 11 11 11 10 11
6 10 11 11 12 12 13 14 14 13 12 12 10 11 11 10 11 12 10 10 12 12
6 8 9 9 11 11 12 12 13 13 13 13 13 8 9 11 12 12 11 12 12 12
4 5 6 9 11 11 9 10 11 11 11 12 11 8 9 10 12 12 13 13 14 12
7 5 6 5 5 6 7 8 8 9 10 10 10 6 1 6 11 12 13 12 13 12
4 8 6 7 4 1 4 5 4 3 3 5 6 8 4 4 8 11 8 9 6 7
6 6 7 4 2 3 5 5 4 2 1 2 5 4 6 7 7 8 7 5 4 4
Wind_Direction
204 210 213 215 227 210 222 209 197 208 230 221 222 219 213 223 236 206 229 238 279 289
202 217 214 236 205 229 226 241 219 226 227 229 226 228 225 243 220 251 233 233 236 255
204 209 221 221 221 243 241 227 254 213 227 234 228 232 235 245 212 238 248 240 242 260
205 210 212 219 224 228 234 244 236 238 243 236 230 229 231 244 271 232 244 262 262 248
211 212 211 216 220 230 233 229 237 236 240 250 247 224 229 244 261 232 244 250 254 254
213 212 218 216 221 223 228 227 231 238 233 234 233 244 244 246 253 259 246 250 256 256
217 224 223 219 220 227 225 227 218 227 245 244 240 245 252 257 251 255 246 248 250 260
227 228 232 228 221 219 226 226 230 227 224 232 241 238 230 245 259 266 259 263 256 253
228 232 227 230 224 221 220 224 230 231 236 237 236 232 191 228 246 251 252 263 264 267
234 244 242 237 231 225 221 222 224 233 240 244 246 223 194 200 250 262 258 267 266 270
208 232 246 240 231 231 231 229 230 233 234 242 248 235 218 217 251 257 256 256 259 259
236 186 194 205 249 233 231 214 217 234 243 244 251 83 292 227 251 249 250 248 254 261
247 225 246 224 206 287 265 273 312 296 1 9 294 59 13 257 273 262 247 241 165 62
193 206 205 222 163 241 238 245 229 185 111 66 52 49 1 322 271 262 260 260 170 131